User: anonymous   Login
Location: Unspecified
(0.0000°N, 0.0000°E)
Time: 02:06:21
(UTC+00:00)
Language:

DMSP 5D-3 F19 (USA 249) - Orbit

View from above orbital plane
View from above orbital plane
View from above satellite
View from above satellite

Ground track
Ground track

The orbit data is extracted from the following two-line orbital elements,

1 39630U 14015A   23088.53354981  .00000352  00000-0  20751-3 0  9999
2 39630  98.7518  93.9694 0009783 326.4902  33.5651 14.14177636463785
Epoch (UTC): 29 March 2023 12:48:18
Eccentricity: 0.0009783
inclination: 98.7518°
perigee height: 838 km
apogee height: 852 km
right ascension of ascending node: 93.9694°
argument of perigee: 326.4902°
revolutions per day: 14.14177636
mean anomaly at epoch: 33.5651°
orbit number at epoch: 46378

The dashed part of the orbit path shows where the satellite is in the earth's shadow,  

DLR